This is the latest recevied weather packets stored in our database for station/object OK3MS-5. If no packets are shown the sender has not sent any weather packets the latest 10 day(s).
| Time | Temp. | Humidity | Pressure | Rain* | Wind** | Luminosity | Snow |
|---|---|---|---|---|---|---|---|
| 1777250703 | 0.56° C | 88% | 1025.2 hPa | 0 mm | - | 0 W/m² | - |
| 1777250409 | 0.56° C | 88% | 1025.1 hPa | 0 mm | - | 0 W/m² | - |
| 1777250103 | 0.56° C | 88% | 1025.4 hPa | 0 mm | - | 0 W/m² | - |
| 1777249805 | 0.56° C | 87% | 1025.2 hPa | 0 mm | - | 0 W/m² | - |
| 1777249512 | 1.11° C | 86% | 1025.2 hPa | 0 mm | - | 0 W/m² | - |
| 1777249202 | 1.11° C | 86% | 1025.3 hPa | 0 mm | - | 0 W/m² | - |
| 1777248908 | 1.67° C | 86% | 1025.2 hPa | 0 mm | - | 0 W/m² | - |
| 1777248603 | 1.67° C | 83% | 1025.1 hPa | 0 mm | - | 0 W/m² | - |
| 1777248310 | 1.67° C | 83% | 1025.2 hPa | 0 mm | - | 0 W/m² | - |
| 1777248004 | 1.11° C | 86% | 1025.2 hPa | 0 mm | - | 0 W/m² | - |
| 1777247709 | 1.11° C | 85% | 1025.3 hPa | 0 mm | - | 0 W/m² | - |
| 1777247403 | 1.67° C | 84% | 1025.2 hPa | 0 mm | - | 0 W/m² | - |
| 1777247111 | 1.67° C | 84% | 1025.1 hPa | 0 mm | - | 0 W/m² | - |
| 1777246805 | 2.22° C | 82% | 1025.1 hPa | 0 mm | - | 0 W/m² | - |
| 1777246509 | 2.22° C | 83% | 1025.1 hPa | 0 mm | - | 0 W/m² | - |
| 1777246202 | 1.67° C | 81% | 1025.1 hPa | 0 mm | - | 0 W/m² | - |
| 1777245911 | 1.67° C | 85% | 1025.2 hPa | 0 mm | - | 0 W/m² | - |
| 1777245602 | 2.22° C | 82% | 1025 hPa | 0 mm | - | 0 W/m² | - |
| 1777245308 | 2.22° C | 83% | 1025 hPa | 0 mm | - | 0 W/m² | - |
| 1777245005 | 2.22° C | 85% | 1025 hPa | 0 mm | - | 0 W/m² | - |
| 1777244704 | 2.22° C | 84% | 1025.1 hPa | 0 mm | - | 0 W/m² | - |
| 1777244410 | 2.22° C | 82% | 1024.9 hPa | 0 mm | - | 0 W/m² | - |
| 1777244105 | 2.78° C | 80% | 1024.9 hPa | 0 mm | - | 0 W/m² | - |
| 1777243808 | 3.33° C | 79% | 1024.8 hPa | 0 mm | - | 0 W/m² | - |
| 1777243504 | 3.33° C | 78% | 1024.8 hPa | 0 mm | - | 0 W/m² | - |
* Rain latest hour (hover to see other rain measurements)
** Current wind speed in m/s (hover to see current wind gust speed)